Location: Newark
(52.3500°N, 175.9667°E)
Time: 21:45:22
(UTC+00:00)

Altair - Pass Details

Date: 01 May 2021
Orbit: 1501 x 1683 km, 47.2° (Epoch: 05 May)

Event Time Altitude Azimuth Distance (km) Brightness Sun altitude
Rises 14:11:30 0° 209° (SSW) 4,923 - -17.7°
Reaches altitude 10° 14:15:05 10° 200° (SSW) 3,930 - -17.4°
Exits shadow 14:17:57 19° 189° (S) 3,232 8.6 -17.2°
Maximum altitude 14:23:40 33° 142° (SE) 2,510 8.4 -16.7°
Drops below altitude 10° 14:32:03 10° 83° (E) 3,849 10.2 -16.0°
Sets 14:35:30 0° 74° (ENE) 4,811 11.0 -15.7°
